OBJECT BS, 43822

Orbit data source: Space-Track

You're viewing an Uncataloged Satellite

Recently launched and/or uncataloged satellites may have evolving metadata. Metadata may include but not limited to: Owner, Maufacturer, Bus, Motor, and Mission.

OBJECT BS, 43822 is a satellite in SSO that was launched on Mon, 03 Dec 2018 UTC via an FALCON 9 launch vehicle from the Air Force Western Test Range (AFWTR). Unknown objects in Earth's orbit typically refer to objects detected orbiting the Earth but have not yet been identified or cataloged. These objects could be anything from previously untracked satellites, spent rocket stages, debris from satellite collisions, or even natural meteoroids temporarily captured by Earth's gravity.

Loading next visibility...
OBJECT BS details
Identifier
43822, 2018-099BS
Orbit
SSO
Last TLE update13 hours ago
Origin
Flag of TBDKorea AeU (TBD)
ManufacturerKorea AeU
MissionAmateur Technology
Bus & MotorCUBESAT 2U, Unknown motor
Mass2 kg wet, 2 kg dry
Launch date (UTC)
2018-12-03 (6 years ago)
Launch vehicle
FALCON 9
Launch site
Air Force Western Test Range (AFWTR)
Object typeUnknown
Shape & HBRBox, 0.5 m
Radar Cross Section0.025 m², Small (<0.1 m²)

Expand to show TLE details & history

TLE from 13 hours ago
0 OBJECT BS
1 43822U 18099BS  24339.61368482  .00009987  00000-0  67635-3 0  9998
2 43822  97.5155  31.5522 0010806 114.2180 246.0178 15.06634608321725
Epoch: 2024-12-04T14:43Z
Definitive object data (Epoch: 2024-12-04T14:43:42.368Z)
Latitude-0.00002°
Longitude96.71935°
Altitude552.61 km
Speed7.584 km/s
True Right ascension02h 06m 12s
True Declination0° 00' 00"
Sunlit
Object was in full shadow at TLE epoch
Visualization TLE readout
Latitude56.6459°
Longitude-71.24241°
Altitude548.606 km
Speed7.597 km/s
Apparent Right ascension14h 23m 02s
Apparent Declination11° 03' 48"
Sunlit
Object is in daylight
Visualization observer readout
Local Sidereal Time01:58:40
Azimuth352.328° N
Elevation-38.708°
Doppler factor1
Orbital elements
Apogee altitude550.96 km
Perigee altitude536.001 km
Semi-major axis6,921.618 km
Eccentricity0.0010806
Inclination97.5155°
RAAN31.5522°
Arg. of periapsis114.218°
True anomaly245.90472°
Mean anomaly246.0178°
Eccentric anomaly245.96126°
Mean motion3.76905 °/min
BSTAR0.00067635
Orbital period95.51 mins
Loading maneuver chart data...
Loading historical data...
Loading historical data...
Loading historical data...
Loading historical data...
Loading historical data...
Loading historical data...
Loading historical data...

OBJECT BS Visibility forecast

Observer location: undefined°, undefined

Span
Click to sort rows by Start time (UTC) header in descending order
Start Az.
Max El. time (UTC)
Max El. Az.
Max El.
End time (UTC)
End Az.
7 mins2024-12-05 16:47:19.829Z2.762° NNE2024-12-05 16:50:19.829Z315.052° NNW39.109°2024-12-05 16:54:19.829Z206.527° SW
6 mins2024-12-06 03:31:19.829Z153.819° SSE2024-12-06 03:34:19.829Z59.479° ENE41.724°2024-12-06 03:37:19.829Z356.136° N
|